User: anonymous   Login
Location: Bazugues
(43.4465°N, 0.3432°E)
Time: 14:42:31
(UTC+00:00)
Language:

Hubble Space Telescope - Orbit

View from above orbital plane
View from above orbital plane
View from above satellite
View from above satellite

Ground track
Ground track

The orbit is defined by the following mean orbital elements,

1 20580U          26109.12818656 +.00000000 +00000-0 +14900-3 0 00000
2 20580  28.4728 124.0054 0001975 201.9875 158.0636 15.30079379    01
Epoch (UTC): 19 April 2026 03:04:35
Eccentricity: 0.0001975
inclination: 28.4728°
perigee height: 474 km
apogee height: 477 km
right ascension of ascending node: 124.0054°
argument of perigee: 201.9875°
revolutions per day: 15.30079379
mean anomaly at epoch: 158.0636°

The dashed part of the orbit path shows where the satellite is in the earth's shadow,  

DLR